SCP
-0 -0 -0 -0 -0 -0 -0 0 -0 0 -0 0 0 0 0 0 0 3 5 3 2 0 2 0 0 0 0 0 0 0 0 0 0 0 0 0 0 0 0 0 0 0 0 0
-0 -0 -0 0 0 0 -0 -0 -0 0 -0 0 0 0 0 0 1 2 3 1 1 1 0 0 0 0 0 0 0 0 0 0 0 0 0 0 0 0 0 0 0 0 0 0
0 0 0 0 0 0 -0 -0 -0 0 0 0 0 1 2 1 2 2 1 0 0 0 0 0 0 0 0 0 0 0 -0 -0 0 0 0 0 0 0 0 0 0 0 0 0
0 0 0 0 0 -0 -0 -0 0 0 0 0 0 2 3 1 2 1 1 0 0 0 0 0 0 0 0 0 0 0 0 0 0 0 0 0 0 0 0 0 0 0 0 0
0 0 0 0 -0 0 0 0 0 0 0 0 0 0 0 0 1 0 0 0 0 0 0 0 0 0 0 0 0 0 0 0 0 -0 -0 -0 0 0 0 0 0 0 0 0
-0 0 0 -0 0 -0 0 0 -0 0 0 0 1 0 0 0 0 0 0 0 0 0 0 0 0 0 0 0 0 0 0 -0 -0 -0 -0 0 0 0 0 0 0 0 0 0
-0 0 0 -0 -0 -0 0 0 0 0 0 0 0 0 0 0 0 0 0 0 0 0 0 0 0 0 0 0 0 0 -0 -0 -0 0 0 0 0 0 0 0 0 0 0 0
0 0 -0 0 -0 0 0 0 0 0 0 0 0 0 0 0 0 0 0 0 0 0 0 0 0 0 0 0 0 -0 -0 0 0 0 0 0 0 0 0 0 0 0 0 0
-0 0 0 0 0 0 0 0 0 0 0 0 0 0 0 0 0 0 0 0 0 0 0 0 0 0 0 0 -0 0 0 0 0 0 0 0 0 0 0 0 0 0 0 0
0 0 0 0 0 0 0 0 0 0 0 0 0 0 0 0 0 0 0 0 0 0 0 0 0 0 0 0 0 0 0 0 0 0 0 0 0 0 0 0 0 0 0 0
0 0 0 0 -0 0 0 0 0 0 0 0 0 0 0 0 0 0 0 0 0 0 0 0 0 0 0 0 0 0 0 0 0 0 0 0 0 0 0 0 0 0 0 0
0 0 0 0 0 0 0 0 0 0 0 0 0 0 0 0 0 0 0 0 0 0 0 0 0 0 0 0 0 0 0 0 0 0 0 0 0 0 0 0 0 0 0 0
0 0 0 0 -0 0 0 0 0 0 0 0 0 0 0 0 0 0 0 0 0 0 0 0 0 0 0 0 0 0 0 0 0 0 0 0 0 0 0 0 0 0 0 0
0 0 -0 0 -0 0 0 0 0 0 0 0 0 0 0 0 0 0 0 0 0 0 0 0 0 0 0 0 0 0 0 0 0 0 0 0 0 0 0 0 0 0 0 0
0 0 -0 0 -0 0 0 0 0 0 0 0 0 0 0 0 0 0 0 0 0 0 0 0 0 0 0 0 0 0 0 0 0 0 0 0 0 0 0 0 0 0 0 0
0 0 0 -0 -0 0 0 0 0 0 0 0 0 0 0 0 0 0 0 0 0 0 0 0 0 0 0 0 0 0 0 0 0 0 0 0 0 0 0 0 0 0 0 0
0 0 0 0 0 -0 0 0 0 0 0 0 0 0 0 0 0 0 0 0 0 0 0 0 0 0 0 0 0 0 0 0 0 0 0 0 0 0 0 0 0 0 0 0
0 0 0 0 0 0 0 0 0 0 0 0 0 0 0 0 0 0 0 0 0 0 0 0 0 0 0 0 0 0 0 0 0 0 0 0 0 0 0 0 0 0 0 0
0 0 0 0 0 0 0 0 0 0 0 0 0 0 0 0 0 0 0 0 0 0 0 0 0 0 0 0 0 0 0 0 0 0 0 0 0 0 0 0 0 0 0 0
0 0 0 0 0 0 0 0 0 0 0 0 0 0 0 0 0 0 0 0 0 0 0 0 0 0 0 0 0 0 0 0 0 0 0 0 0 0 0 0 0 0 0 0
0 0 0 0 0 0 0 0 0 0 0 0 0 0 0 0 0 0 0 0 0 0 0 0 0 0 0 0 0 0 0 0 0 0 0 0 0 0 0 0 0 0 0 0
0 0 0 0 0 0 0 0 0 0 0 0 0 0 0 0 0 0 0 0 0 0 0 0 0 0 0 0 0 0 0 0 0 0 0 0 0 0 0 0 0 0 0 0
0 0 0 0 0 0 0 0 0 0 0 0 0 0 0 0 0 0 0 0 0 0 0 0 0 0 0 0 0 0 0 0 0 0 0 0 0 0 0 0 0 0 0 0
0 0 0 0 0 0 0 0 0 0 0 0 0 0 0 0 0 0 0 0 0 0 0 0 0 0 0 0 0 0 0 0 0 0 0 0 0 0 0 0 0 0 0 0
-0 0 0 0 0 0 0 0 0 0 0 0 0 0 0 0 0 0 0 0 0 0 0 0 0 0 0 0 0 0 0 0 0 0 0 0 0 0 0 0 0 0 0 0
0 -0 -0 0 0 0 0 0 0 0 0 0 0 0 0 0 0 0 0 0 0 0 0 0 0 0 0 0 0 0 0 0 0 0 0 0 0 0 0 0 0 0 0 0
-0 -0 0 0 0 0 0 0 0 0 -0 0 0 0 0 0 0 0 0 0 0 0 0 0 0 -0 0 0 0 0 0 0 0 0 0 0 0 0 0 0 0 0 0 0
Wind_Speed_500mb
39 46 48 49 38 38 28 35 31 32 35 37 25 25 43 63 76 60 57 67 82 71 86 98 100 102 99 93 86 88 72 69 68 62 57 50 46 40 34 28 23 19 15 12
47 38 32 22 9 27 26 28 26 31 51 42 28 39 55 57 74 63 64 67 80 86 93 97 94 97 97 92 93 79 68 66 63 59 55 49 44 40 34 28 25 22 18 14
15 21 19 6 10 24 25 19 6 16 38 43 23 44 42 71 77 71 68 65 72 82 94 101 102 98 94 90 83 69 68 67 63 58 55 48 42 38 32 27 23 20 17 13
19 34 5 15 21 26 20 30 16 29 36 28 37 13 53 61 76 74 73 74 69 88 92 96 96 94 94 85 80 78 70 68 63 57 52 46 41 37 32 28 26 23 20 17
11 26 2 18 22 17 9 13 17 34 44 11 38 81 48 57 69 71 70 74 85 93 97 96 92 92 92 88 82 73 75 71 61 55 49 45 41 38 34 31 28 24 21 18
14 16 9 19 45 60 1 6 48 50 43 29 53 29 16 71 77 78 80 90 91 101 104 97 90 84 84 81 80 77 70 64 56 51 49 45 41 38 34 31 27 20 20 18
19 8 9 34 50 68 9 17 54 52 33 42 25 24 61 94 81 80 82 90 94 93 92 90 87 87 84 80 76 70 64 58 55 52 50 45 42 37 33 28 23 20 20 16
14 10 10 61 32 18 27 59 40 40 28 69 60 59 83 91 87 89 82 84 90 94 86 81 81 83 80 75 72 67 60 58 61 52 45 42 39 35 30 25 23 21 19 16
10 9 22 43 27 56 37 30 31 34 25 69 62 62 82 82 86 81 79 82 84 89 88 77 74 75 79 70 64 60 62 60 53 48 44 38 34 31 24 23 20 19 17 18
18 7 32 27 55 62 30 29 29 35 37 59 64 65 75 79 80 80 78 80 78 79 80 75 64 63 65 63 59 58 59 58 50 46 42 37 31 28 25 22 20 20 16 15
14 12 35 15 55 49 22 24 36 45 48 52 76 64 75 77 79 78 81 76 74 74 76 71 63 62 59 59 58 57 52 49 48 45 40 42 39 28 26 33 29 25 19 21
7 28 13 33 51 25 24 30 45 58 59 62 82 81 78 72 74 78 76 73 73 70 68 63 59 56 54 52 57 54 52 44 41 39 36 34 35 37 33 26 17 22 25 20
13 43 33 33 26 24 34 37 52 62 65 74 75 87 85 83 71 77 72 67 66 67 62 58 55 52 46 46 48 43 43 42 40 38 35 35 33 32 36 30 22 21 21 21
18 22 15 25 17 27 41 53 65 69 65 64 66 68 76 80 70 73 66 61 61 60 58 56 53 49 43 41 42 42 42 42 36 35 35 32 31 30 24 22 20 23 26 25
14 14 11 13 21 32 45 52 58 63 68 71 69 71 67 69 71 77 67 58 57 57 55 51 48 46 42 41 42 44 40 37 36 35 33 31 27 27 23 20 17 12 14 21
10 11 14 21 22 25 35 42 51 49 53 56 62 63 65 61 66 71 64 58 64 63 59 56 49 42 40 43 42 38 39 42 37 37 34 30 26 24 21 20 18 14 10 8
4 7 10 17 23 25 34 39 44 50 53 58 60 59 59 60 61 61 62 51 53 59 52 53 50 43 41 41 38 39 43 36 36 32 30 27 24 21 19 16 14 11 11 13
6 9 8 14 22 31 35 42 47 51 52 51 54 56 58 55 50 52 52 47 42 48 45 40 44 40 40 39 36 33 36 30 29 28 27 24 21 20 17 15 13 10 11 18
11 13 12 15 19 26 32 38 47 55 59 53 54 55 53 49 47 45 45 45 42 42 38 41 47 37 35 44 34 29 30 29 29 26 24 28 22 18 17 15 14 12 10 9
16 17 17 17 20 26 36 38 42 41 51 55 48 46 43 43 40 40 38 34 31 38 39 38 32 33 36 45 33 30 29 26 25 25 22 19 19 17 16 19 14 9 8 7
19 21 23 24 25 30 37 41 36 38 36 33 41 43 37 34 33 33 33 34 33 33 35 34 30 31 25 36 26 24 26 24 23 23 22 19 20 16 14 11 10 8 5 6
22 24 27 33 34 34 38 39 40 37 35 32 35 36 33 28 28 25 23 33 32 38 28 25 26 33 35 31 22 21 21 21 21 20 19 18 16 15 13 11 8 5 4 3
25 27 30 31 34 36 36 35 35 30 30 29 27 26 24 25 25 27 29 28 32 38 23 24 26 42 37 24 19 20 20 20 20 18 18 16 15 13 12 9 7 6 3 2
28 28 27 27 28 28 29 27 26 25 24 23 24 22 22 20 20 19 25 34 29 28 21 23 30 34 30 17 18 19 20 20 17 16 17 19 11 9 10 6 6 5 6 4
27 26 29 31 31 28 27 26 25 24 25 26 25 22 19 19 21 22 23 29 38 23 20 29 30 34 22 20 18 18 17 16 18 17 15 13 12 11 9 9 9 9 8 7
24 23 23 26 23 25 26 29 28 29 29 27 25 23 23 22 23 25 26 27 34 29 17 29 32 33 16 18 20 19 18 20 18 16 14 20 16 13 11 10 11 8 7 8
21 23 22 23 23 28 28 29 27 27 28 26 25 27 25 23 24 27 27 27 30 28 24 24 25 29 22 21 20 19 18 16 17 14 20 17 20 19 15 14 13 12 12 13
Wind_Direction_500mb
265 270 270 270 244 254 233 242 244 261 266 262 274 278 267 260 209 131 138 128 128 125 128 138 136 141 144 143 144 141 137 138 140 138 141 137 138 138 137 134 129 121 117 111
288 278 262 225 292 352 312 299 287 265 266 272 281 258 261 250 146 143 130 121 125 132 136 138 138 140 141 143 143 145 130 129 131 130 130 130 134 133 131 126 119 113 106 103
277 325 289 122 27 342 294 268 285 244 270 309 300 262 218 150 137 124 124 125 126 131 137 135 139 139 139 143 142 133 130 131 132 133 134 129 126 125 125 124 121 116 113 124
287 314 337 140 53 341 295 284 256 282 284 283 241 241 127 125 124 119 125 127 128 131 132 134 137 140 138 138 139 136 131 134 136 132 125 125 126 128 127 122 113 107 99 98
298 322 145 142 355 318 315 285 336 343 338 140 125 84 71 108 109 117 122 125 127 131 132 134 137 137 139 141 141 135 130 127 127 128 126 124 122 122 117 113 108 105 102 88
310 314 332 357 337 323 117 238 357 337 323 188 116 88 83 95 109 111 115 123 122 122 120 119 122 130 129 125 125 122 122 127 129 129 124 122 120 115 111 106 104 104 92 92
319 305 95 359 339 320 338 336 322 325 341 72 78 97 113 108 106 109 114 114 114 114 115 118 121 121 121 124 124 128 129 129 129 126 123 122 118 116 114 115 111 105 95 73
328 316 349 360 343 14 301 304 323 357 50 90 94 107 110 111 110 110 109 110 110 111 113 119 122 123 122 123 127 131 128 129 127 120 121 119 119 113 109 103 100 102 95 75
321 331 347 330 325 329 344 340 19 23 66 103 102 103 109 110 110 109 108 109 110 111 113 117 120 124 122 125 130 132 127 123 121 119 115 112 112 108 105 102 103 109 106 95
327 54 343 330 351 358 354 22 52 69 78 102 101 106 104 107 108 109 109 110 113 113 113 116 121 123 123 127 128 125 125 124 120 117 117 110 103 99 102 101 104 108 103 96
274 349 333 341 348 354 359 75 93 96 86 90 106 100 105 105 105 106 107 109 112 113 115 118 121 122 124 127 128 124 124 124 120 117 122 130 123 110 131 127 122 119 110 116
317 325 304 298 336 353 41 91 99 106 94 89 108 102 105 103 108 108 108 111 113 114 115 117 118 118 120 124 128 125 121 123 124 120 115 114 120 120 120 130 135 127 118 104
280 309 318 335 358 54 78 92 112 115 106 102 97 106 98 101 104 108 111 112 112 113 114 115 115 116 124 123 118 123 126 124 126 125 124 120 120 116 120 114 106 98 91 87
340 352 353 16 37 77 99 92 103 112 113 112 113 112 113 104 101 106 108 110 111 113 114 116 118 118 120 122 121 123 126 124 126 127 127 126 125 121 114 105 101 90 72 71
5 18 24 39 75 104 103 109 100 97 106 107 111 110 113 112 111 109 108 110 111 110 110 114 115 115 119 123 123 121 121 124 122 124 129 127 127 127 128 121 110 102 44 38
26 45 67 80 90 104 118 119 117 113 112 111 112 114 116 116 110 111 111 114 112 111 112 111 108 111 115 116 118 124 130 131 127 122 121 126 126 124 124 120 116 113 109 89
332 54 80 93 107 115 119 128 126 120 117 121 120 119 116 109 106 109 109 109 113 112 112 115 116 120 123 130 126 127 123 118 124 125 123 123 126 124 122 120 120 116 86 96
91 80 126 134 134 133 130 130 131 128 121 118 119 120 117 114 110 104 109 112 110 105 109 114 116 120 123 121 124 126 126 127 128 126 125 126 126 122 124 124 120 111 97 73
126 110 119 135 140 142 141 137 135 131 125 124 125 119 114 112 113 119 121 120 114 116 123 133 129 127 129 126 124 131 134 132 126 129 139 131 123 128 129 130 125 118 107 84
138 129 115 133 144 147 143 143 139 134 134 131 123 118 115 116 121 121 120 119 127 126 130 122 122 121 126 125 130 132 129 133 132 123 125 136 133 140 146 140 125 116 110 95
138 133 130 134 141 149 151 146 132 129 129 133 139 126 117 120 127 127 122 122 125 124 128 118 125 128 137 125 121 134 132 135 137 139 134 146 134 135 130 129 130 127 128 97
132 134 138 135 134 140 147 146 142 139 131 140 139 134 128 130 132 131 139 137 144 130 121 133 142 149 143 120 139 135 140 139 144 146 146 144 148 142 143 146 141 135 129 118
136 130 131 131 135 138 142 145 140 137 141 145 149 145 140 139 144 149 150 149 147 132 146 176 165 148 139 117 142 144 155 154 153 154 148 153 156 156 155 151 159 161 166 217
138 141 137 135 136 137 139 144 147 148 153 158 158 149 150 150 147 149 156 156 160 141 179 170 159 156 135 146 158 168 164 161 158 156 168 159 159 169 165 173 171 203 236 281
145 144 145 151 152 156 156 157 159 163 162 158 160 163 166 167 171 169 173 169 177 157 182 171 170 164 138 168 171 173 173 169 174 167 167 162 165 181 204 183 199 218 232 252
159 159 165 165 163 168 170 170 169 169 168 171 174 178 175 171 178 173 170 185 176 162 179 184 175 167 159 178 182 181 177 200 186 172 182 176 172 198 196 204 223 250 254 263
174 169 171 172 179 181 186 183 181 182 179 184 181 179 177 173 180 168 181 179 178 177 184 187 188 177 186 189 183 186 186 186 181 196 188 201 200 195 209 225 227 236 252 264
Wind_Speed_850mb
39 46 48 49 38 38 28 35 31 32 35 37 25 25 43 63 76 60 57 67 82 71 86 98 100 102 99 93 86 88 72 69 68 62 57 50 46 40 34 28 23 19 15 12
47 38 32 22 9 27 26 28 26 31 51 42 28 39 55 57 74 63 64 67 80 86 93 97 94 97 97 92 93 79 68 66 63 59 55 49 44 40 34 28 25 22 18 14
15 21 19 6 10 24 25 19 6 16 38 43 23 44 42 71 77 71 68 65 72 82 94 101 102 98 94 90 83 69 68 67 63 58 55 48 42 38 32 27 23 20 17 13
19 34 5 15 21 26 20 30 16 29 36 28 37 13 53 61 76 74 73 74 69 88 92 96 96 94 94 85 80 78 70 68 63 57 52 46 41 37 32 28 26 23 20 17
11 26 2 18 22 17 9 13 17 34 44 11 38 81 48 57 69 71 70 74 85 93 97 96 92 92 92 88 82 73 75 71 61 55 49 45 41 38 34 31 28 24 21 18
14 16 9 19 45 60 1 6 48 50 43 29 53 29 16 71 77 78 80 90 91 101 104 97 90 84 84 81 80 77 70 64 56 51 49 45 41 38 34 31 27 20 20 18
19 8 9 34 50 68 9 17 54 52 33 42 25 24 61 94 81 80 82 90 94 93 92 90 87 87 84 80 76 70 64 58 55 52 50 45 42 37 33 28 23 20 20 16
14 10 10 61 32 18 27 59 40 40 28 69 60 59 83 91 87 89 82 84 90 94 86 81 81 83 80 75 72 67 60 58 61 52 45 42 39 35 30 25 23 21 19 16
10 9 22 43 27 56 37 30 31 34 25 69 62 62 82 82 86 81 79 82 84 89 88 77 74 75 79 70 64 60 62 60 53 48 44 38 34 31 24 23 20 19 17 18
18 7 32 27 55 62 30 29 29 35 37 59 64 65 75 79 80 80 78 80 78 79 80 75 64 63 65 63 59 58 59 58 50 46 42 37 31 28 25 22 20 20 16 15
14 12 35 15 55 49 22 24 36 45 48 52 76 64 75 77 79 78 81 76 74 74 76 71 63 62 59 59 58 57 52 49 48 45 40 42 39 28 26 33 29 25 19 21
7 28 13 33 51 25 24 30 45 58 59 62 82 81 78 72 74 78 76 73 73 70 68 63 59 56 54 52 57 54 52 44 41 39 36 34 35 37 33 26 17 22 25 20
13 43 33 33 26 24 34 37 52 62 65 74 75 87 85 83 71 77 72 67 66 67 62 58 55 52 46 46 48 43 43 42 40 38 35 35 33 32 36 30 22 21 21 21
18 22 15 25 17 27 41 53 65 69 65 64 66 68 76 80 70 73 66 61 61 60 58 56 53 49 43 41 42 42 42 42 36 35 35 32 31 30 24 22 20 23 26 25
14 14 11 13 21 32 45 52 58 63 68 71 69 71 67 69 71 77 67 58 57 57 55 51 48 46 42 41 42 44 40 37 36 35 33 31 27 27 23 20 17 12 14 21
10 11 14 21 22 25 35 42 51 49 53 56 62 63 65 61 66 71 64 58 64 63 59 56 49 42 40 43 42 38 39 42 37 37 34 30 26 24 21 20 18 14 10 8
4 7 10 17 23 25 34 39 44 50 53 58 60 59 59 60 61 61 62 51 53 59 52 53 50 43 41 41 38 39 43 36 36 32 30 27 24 21 19 16 14 11 11 13
6 9 8 14 22 31 35 42 47 51 52 51 54 56 58 55 50 52 52 47 42 48 45 40 44 40 40 39 36 33 36 30 29 28 27 24 21 20 17 15 13 10 11 18
11 13 12 15 19 26 32 38 47 55 59 53 54 55 53 49 47 45 45 45 42 42 38 41 47 37 35 44 34 29 30 29 29 26 24 28 22 18 17 15 14 12 10 9
16 17 17 17 20 26 36 38 42 41 51 55 48 46 43 43 40 40 38 34 31 38 39 38 32 33 36 45 33 30 29 26 25 25 22 19 19 17 16 19 14 9 8 7
19 21 23 24 25 30 37 41 36 38 36 33 41 43 37 34 33 33 33 34 33 33 35 34 30 31 25 36 26 24 26 24 23 23 22 19 20 16 14 11 10 8 5 6
22 24 27 33 34 34 38 39 40 37 35 32 35 36 33 28 28 25 23 33 32 38 28 25 26 33 35 31 22 21 21 21 21 20 19 18 16 15 13 11 8 5 4 3
25 27 30 31 34 36 36 35 35 30 30 29 27 26 24 25 25 27 29 28 32 38 23 24 26 42 37 24 19 20 20 20 20 18 18 16 15 13 12 9 7 6 3 2
28 28 27 27 28 28 29 27 26 25 24 23 24 22 22 20 20 19 25 34 29 28 21 23 30 34 30 17 18 19 20 20 17 16 17 19 11 9 10 6 6 5 6 4
27 26 29 31 31 28 27 26 25 24 25 26 25 22 19 19 21 22 23 29 38 23 20 29 30 34 22 20 18 18 17 16 18 17 15 13 12 11 9 9 9 9 8 7
24 23 23 26 23 25 26 29 28 29 29 27 25 23 23 22 23 25 26 27 34 29 17 29 32 33 16 18 20 19 18 20 18 16 14 20 16 13 11 10 11 8 7 8
21 23 22 23 23 28 28 29 27 27 28 26 25 27 25 23 24 27 27 27 30 28 24 24 25 29 22 21 20 19 18 16 17 14 20 17 20 19 15 14 13 12 12 13
Wind_Direction_850mb
265 270 270 270 244 254 233 242 244 261 266 262 274 278 267 260 209 131 138 128 128 125 128 138 136 141 144 143 144 141 137 138 140 138 141 137 138 138 137 134 129 121 117 111
288 278 262 225 292 352 312 299 287 265 266 272 281 258 261 250 146 143 130 121 125 132 136 138 138 140 141 143 143 145 130 129 131 130 130 130 134 133 131 126 119 113 106 103
277 325 289 122 27 342 294 268 285 244 270 309 300 262 218 150 137 124 124 125 126 131 137 135 139 139 139 143 142 133 130 131 132 133 134 129 126 125 125 124 121 116 113 124
287 314 337 140 53 341 295 284 256 282 284 283 241 241 127 125 124 119 125 127 128 131 132 134 137 140 138 138 139 136 131 134 136 132 125 125 126 128 127 122 113 107 99 98
298 322 145 142 355 318 315 285 336 343 338 140 125 84 71 108 109 117 122 125 127 131 132 134 137 137 139 141 141 135 130 127 127 128 126 124 122 122 117 113 108 105 102 88
310 314 332 357 337 323 117 238 357 337 323 188 116 88 83 95 109 111 115 123 122 122 120 119 122 130 129 125 125 122 122 127 129 129 124 122 120 115 111 106 104 104 92 92
319 305 95 359 339 320 338 336 322 325 341 72 78 97 113 108 106 109 114 114 114 114 115 118 121 121 121 124 124 128 129 129 129 126 123 122 118 116 114 115 111 105 95 73
328 316 349 360 343 14 301 304 323 357 50 90 94 107 110 111 110 110 109 110 110 111 113 119 122 123 122 123 127 131 128 129 127 120 121 119 119 113 109 103 100 102 95 75
321 331 347 330 325 329 344 340 19 23 66 103 102 103 109 110 110 109 108 109 110 111 113 117 120 124 122 125 130 132 127 123 121 119 115 112 112 108 105 102 103 109 106 95
327 54 343 330 351 358 354 22 52 69 78 102 101 106 104 107 108 109 109 110 113 113 113 116 121 123 123 127 128 125 125 124 120 117 117 110 103 99 102 101 104 108 103 96
274 349 333 341 348 354 359 75 93 96 86 90 106 100 105 105 105 106 107 109 112 113 115 118 121 122 124 127 128 124 124 124 120 117 122 130 123 110 131 127 122 119 110 116
317 325 304 298 336 353 41 91 99 106 94 89 108 102 105 103 108 108 108 111 113 114 115 117 118 118 120 124 128 125 121 123 124 120 115 114 120 120 120 130 135 127 118 104
280 309 318 335 358 54 78 92 112 115 106 102 97 106 98 101 104 108 111 112 112 113 114 115 115 116 124 123 118 123 126 124 126 125 124 120 120 116 120 114 106 98 91 87
340 352 353 16 37 77 99 92 103 112 113 112 113 112 113 104 101 106 108 110 111 113 114 116 118 118 120 122 121 123 126 124 126 127 127 126 125 121 114 105 101 90 72 71
5 18 24 39 75 104 103 109 100 97 106 107 111 110 113 112 111 109 108 110 111 110 110 114 115 115 119 123 123 121 121 124 122 124 129 127 127 127 128 121 110 102 44 38
26 45 67 80 90 104 118 119 117 113 112 111 112 114 116 116 110 111 111 114 112 111 112 111 108 111 115 116 118 124 130 131 127 122 121 126 126 124 124 120 116 113 109 89
332 54 80 93 107 115 119 128 126 120 117 121 120 119 116 109 106 109 109 109 113 112 112 115 116 120 123 130 126 127 123 118 124 125 123 123 126 124 122 120 120 116 86 96
91 80 126 134 134 133 130 130 131 128 121 118 119 120 117 114 110 104 109 112 110 105 109 114 116 120 123 121 124 126 126 127 128 126 125 126 126 122 124 124 120 111 97 73
126 110 119 135 140 142 141 137 135 131 125 124 125 119 114 112 113 119 121 120 114 116 123 133 129 127 129 126 124 131 134 132 126 129 139 131 123 128 129 130 125 118 107 84
138 129 115 133 144 147 143 143 139 134 134 131 123 118 115 116 121 121 120 119 127 126 130 122 122 121 126 125 130 132 129 133 132 123 125 136 133 140 146 140 125 116 110 95
138 133 130 134 141 149 151 146 132 129 129 133 139 126 117 120 127 127 122 122 125 124 128 118 125 128 137 125 121 134 132 135 137 139 134 146 134 135 130 129 130 127 128 97
132 134 138 135 134 140 147 146 142 139 131 140 139 134 128 130 132 131 139 137 144 130 121 133 142 149 143 120 139 135 140 139 144 146 146 144 148 142 143 146 141 135 129 118
136 130 131 131 135 138 142 145 140 137 141 145 149 145 140 139 144 149 150 149 147 132 146 176 165 148 139 117 142 144 155 154 153 154 148 153 156 156 155 151 159 161 166 217
138 141 137 135 136 137 139 144 147 148 153 158 158 149 150 150 147 149 156 156 160 141 179 170 159 156 135 146 158 168 164 161 158 156 168 159 159 169 165 173 171 203 236 281
145 144 145 151 152 156 156 157 159 163 162 158 160 163 166 167 171 169 173 169 177 157 182 171 170 164 138 168 171 173 173 169 174 167 167 162 165 181 204 183 199 218 232 252
159 159 165 165 163 168 170 170 169 169 168 171 174 178 175 171 178 173 170 185 176 162 179 184 175 167 159 178 182 181 177 200 186 172 182 176 172 198 196 204 223 250 254 263
174 169 171 172 179 181 186 183 181 182 179 184 181 179 177 173 180 168 181 179 178 177 184 187 188 177 186 189 183 186 186 186 181 196 188 201 200 195 209 225 227 236 252 264